Location: Unspecified
(39.0670°S, 0.0000°E)
Time: 10:10:19
(UTC+00:00)

Envisat - Pass Details

Date: 02 July 2019
Orbit: 764 x 766 km, 98.1° (Epoch: 19 July)

Event Time Altitude Azimuth Distance (km) Brightness Sun altitude
Rises 06:18:47 0° 15° (NNE) 3,222 6.8 -11.6°
Reaches altitude 10° 06:21:04 10° 15° (NNE) 2,304 6.0 -11.2°
Maximum altitude 06:26:10 87° 105° (ESE) 781 3.1 -10.2°
Drops below altitude 10° 06:31:20 10° 192° (SSW) 2,336 5.2 -9.3°
Sets 06:33:39 0° 192° (SSW) 3,270 5.9 -8.9°
